Home   Weather   Ponce   Past weeks

Flag for Puerto Rico Past Weather in Ponce, Puerto Rico — Yesterday and Last 2 Weeks

Now
73 °F

Thunderstorms. Broken clouds.


Feels Like: 72 °F
Forecast: N/A
Wind: 14 mph from Southeast

Location: Aquadilla / Borinquen

Current Time: Apr 26, 2017 at 5:44:43 pm

Latest Report: Apr 26, 2017 at 4:50 pm


Visibility: 5 mi

Pressure: 29.96 "Hg

Humidity: 89%

Dew Point: 70 °F

Location of PonceLocation

Past Weather in Ponce — Graph

°F

Ponce Temperature Yesterday

Maximum temperature yesterday: 84 °F (at 9:50 am)
Minimum temperature yesterday: 72 °F (at 6:50 am)
Average temperature yesterday: 80 °F

High & Low Weather Summary for the Past Weeks

 TemperatureHumidityPressure
High84 °F (Apr 12, 11:50 am)100% (Apr 11, 8:50 pm)30.08 "Hg (Apr 11, 8:50 pm)
Low70 °F (Apr 11, 8:50 pm)51% (Apr 23, 9:50 am)29.87 "Hg (Apr 24, 5:50 pm)
Average78 °F76%29.98 "Hg
* Reported Apr 11 3:50 pm — Apr 26 3:50 pm, Ponce, Weather by CustomWeather, © 2017

Note: Actual official high and low records may vary slightly from our data, if they occured in-between our weather recording intervals... More about our weather records

Advertising

Ponce Weather History for the Previous 24 Hours

Scroll right to see more
 ConditionsComfort  
Time TempWeatherWind HumidityBarometerVisibility
3:50 pm
Wed, Apr 26
82 °FThundershowers. Partly sunny.7 mph74%29.94 "Hg10 mi
2:50 pm79 °FBroken clouds.No wind79%29.95 "Hg10 mi
1:50 pm75 °FThunderstorms. More clouds than sun.No wind83%29.96 "Hg7 mi
12:50 pm82 °FThunderstorms. Partly sunny.7 mph74%29.98 "Hg10 mi
11:50 am84 °FSunny.5 mph70%29.97 "Hg10 mi
10:50 am84 °FBroken clouds.5 mph74%29.98 "Hg10 mi
9:50 am81 °FBroken clouds.No wind79%29.99 "Hg10 mi
8:50 am81 °FSunny.7 mph74%29.98 "Hg10 mi
7:50 am77 °FPartly sunny.10 mph83%29.97 "Hg10 mi
6:50 am73 °FPassing clouds.8 mph94%29.96 "Hg10 mi
4:50 am73 °FRain. Overcast.20 mph94%29.93 "Hg5 mi
3:50 am73 °FOvercast.6 mph94%29.91 "Hg10 mi
3:26 am73 °FRain. Overcast.3 mph94%29.91 "Hg4 mi
3:02 am75 °FHeavy rain. Mostly cloudy.10 mph94%29.92 "Hg2 mi
1:50 am75 °FOvercast.No wind94%29.93 "Hg10 mi
12:50 am77 °FMostly cloudy.No wind89%29.95 "Hg10 mi
11:50 pm
Tue, Apr 25
79 °FOvercast.No wind89%29.97 "Hg10 mi
10:50 pm77 °FPassing clouds.No wind94%29.98 "Hg10 mi
9:50 pm77 °FPassing clouds.No wind94%29.97 "Hg10 mi
8:50 pm79 °FClear.No wind89%29.96 "Hg10 mi
7:50 pm79 °FPassing clouds.5 mph89%29.92 "Hg10 mi
6:50 pm81 °FBroken clouds.5 mph79%29.92 "Hg10 mi
5:50 pm81 °FBroken clouds.3 mph84%29.91 "Hg10 mi
Weather by CustomWeather, © 2017

See weather overviewHow to use our weather pages